Caldwell, ID

4:58 AM MST on November 12, 2019 (GMT -0700)
Caldwell Industrial

Weather History for KEUL - October, 2019

Change the Weather History Date:

Monday, October 21, 2019

  Actual Average (KBOI) Record (KBOI)
Temperature  
Mean Temperature 46 °F -  
Max Temperature 59 °F 62 °F 84 °F (2003)
Min Temperature 34 °F 38 °F 23 °F (1996)
Degree Days  
Heating Degree Days 20    
Moisture  
Dew Point 35 °F    
Average Humidity 69    
Maximum Humidity 89    
Minimum Humidity 44    
Precipitation  
Precipitation 0.00 in - - ()
Sea Level Pressure  
Sea Level Pressure 30.27 in    
Wind  
Wind Speed 3 mph ()    
Max Wind Speed 9 mph    
Max Gust Speed -    
Visibility 10.0 miles    
Events      
Averages and records for this station are not official NWS values.
T = Trace of Precipitation, MM = Missing Value Source: Averaged Metar Reports

Daily Weather History Graph

Daily Weather History Graph

Search for Another Location

Airport or City:

Astronomy

Oct. 21, 2019 Rise Set
Actual Time 8:08 AM MDT 6:53 PM MDT
Civil Twilight 7:38 AM MDT 7:22 PM MDT
Nautical Twilight 7:05 AM MDT 7:56 PM MDT
Astronomical Twilight 6:32 AM MDT 8:29 PM MDT
Moon 12:01 AM MDT (10/21) 3:36 PM MDT (10/21)
Length of Visible Light 11h 43m
Length of Day
10h 45m
Waning Gibbous, 47% of the Moon is Illuminated
Oct 21
Waning Gibbous
Oct 27
New
Nov 4
First Quarter
Nov 12
Full
Nov 19
Last Quarter

Hourly Weather History & Observations

Time (MDT) Temp. Windchill Dew Point Humidity Pressure Visibility Wind Dir Wind Speed Gust Speed Precip Events Conditions
12:56 AM 39.9 °F 36.7 °F 33.1 °F 77% 30.13 in 10.0 mi SE 4.6 mph - N/A   Clear
1:56 AM 39.9 °F 36.7 °F 32.0 °F 73% 30.12 in 10.0 mi SE 4.6 mph - N/A   Clear
2:56 AM 36.0 °F 33.3 °F 30.9 °F 82% 30.15 in 10.0 mi North 3.5 mph - N/A   Clear
3:56 AM 34.0 °F - 30.9 °F 89% 30.17 in 10.0 mi Calm Calm - N/A   Clear
4:56 AM 34.0 °F - 30.9 °F 89% 30.17 in 10.0 mi Calm Calm - N/A   Scattered Clouds
5:56 AM 35.1 °F - 32.0 °F 89% 30.20 in 10.0 mi Calm Calm - N/A   Partly Cloudy
6:56 AM 36.0 °F - 33.1 °F 89% 30.22 in 10.0 mi Calm Calm - N/A   Clear
7:56 AM 36.0 °F - 33.1 °F 89% 30.25 in 10.0 mi Calm Calm - N/A   Clear
8:56 AM 37.0 °F - 34.0 °F 89% 30.28 in 10.0 mi Calm Calm - N/A   Overcast
9:56 AM 39.9 °F - 35.1 °F 83% 30.30 in 10.0 mi Calm Calm - N/A   Overcast
10:56 AM 44.1 °F 41.5 °F 36.0 °F 73% 30.32 in 10.0 mi WSW 4.6 mph - N/A   Overcast
11:56 AM 46.9 °F - 36.0 °F 66% 30.32 in 10.0 mi NNW 3.5 mph - N/A   Overcast
12:56 PM 51.1 °F - 37.0 °F 59% 30.33 in 10.0 mi WNW 3.5 mph - N/A   Overcast
1:56 PM 55.0 °F - 37.0 °F 51% 30.31 in 10.0 mi WNW 4.6 mph - N/A   Overcast
2:56 PM 55.9 °F - 37.0 °F 49% 30.31 in 10.0 mi NNW 8.1 mph - N/A   Overcast
3:56 PM 57.9 °F - 36.0 °F 44% 30.30 in 10.0 mi North 9.2 mph - N/A   Clear
4:56 PM 57.9 °F - 36.0 °F 44% 30.31 in 10.0 mi Variable 6.9 mph - N/A   Mostly Cloudy
5:56 PM 55.9 °F - 37.0 °F 49% 30.32 in 10.0 mi North 8.1 mph - N/A   Scattered Clouds
6:56 PM 54.0 °F - 37.0 °F 53% 30.32 in 10.0 mi Calm Calm - N/A   Mostly Cloudy
7:56 PM 53.1 °F - 36.0 °F 52% 30.33 in 10.0 mi Calm Calm - N/A   Mostly Cloudy
8:56 PM 51.1 °F - 37.0 °F 59% 30.33 in 10.0 mi Calm Calm - N/A   Partly Cloudy
9:56 PM 51.1 °F - 37.9 °F 61% 30.34 in 10.0 mi Calm Calm - N/A   Overcast
11:56 PM 45.0 °F 42.6 °F 39.0 °F 80% 30.35 in 10.0 mi NNE 4.6 mph - N/A   Clear